Regional Weather Roundup
Issued by NWS

Home | Current Version | Previous Version | Text Only | Print | Product List | Glossary Off
Versions: 1 2 3 4 5 6 7 8 9 10 11 12 13 14 15 16 17 18 19 20 21 22 23 24 25 26 27 28 29 30 31 32 33 34 35 36 37 38 39 40 41 42 43 44 45 46 47 48 49 50

000
ASUS43 KIND 200159
RWRIN

WEATHER ROUNDUP FOR INDIANA
NATIONAL WEATHER SERVICE INDIANAPOLIS IN
1000 PM EDT TUE AUG 19 2014

NOTE: "FAIR" INDICATES FEW OR NO CLOUDS BELOW 12,000 FEET WITH NO
SIGNIFICANT WEATHER AND/OR OBSTRUCTIONS TO VISIBILITY.

* - STATION DOES NOT REPORT WEATHER SUCH AS PRECIPITATION OR FOG.

+ - STATION NOT QUALITY CONTROLLED BY THE NATIONAL WEATHER SERVICE.
    USE DATA WITH CAUTION...ESPECIALLY DEWPOINT AND RELATIVE
    HUMIDITY OBSERVATIONS.

INZ001>003-010>013-019-020-200300-
NORTHWEST INDIANA

CITY           SKY/WX    TMP DP  RH WIND       PRES   REMARKS
GARY /AIRPORT/ MOCLDY    77  70  78 S3        29.75R
KNOX *+        CLOUDY    72  64  77 SW9       29.76R
MONTICELLO +   CLOUDY    67  65  94 SW7       29.79S
VALPARAISO     PTCLDY    73  67  81 SW8       29.77R

$$

LMZ046-743>745-200300-
SOUTHERN LAKE MICHIGAN

STATION/POSITION TIME  TEMP WIND        PRES
                       AIR  DIR/SP/G
                 (UTC) (F)  (DEG/KT/KT) (MB)
BURNS HARBOR     0100   77  200/ 10/ 15   N/A
MICHIGAN CITY    0100   76  160/ 10/ 15   N/A

$$

INZ004-005-014>016-021>024-200300-
NORTH CENTRAL INDIANA

CITY           SKY/WX    TMP DP  RH WIND       PRES   REMARKS
GOSHEN         CLOUDY    73  68  84 SW3       29.77S
PERU/GRISSOM   LGT RAIN  70  70 100 W13       29.82R
SOUTH BEND     CLOUDY    73  66  78 S6        29.77R
WARSAW +       CLOUDY    72  66  83 S7G18     29.79R

$$

INZ006>009-017-018-025>027-200300-
NORTHEAST INDIANA

CITY           SKY/WX    TMP DP  RH WIND       PRES   REMARKS
ANGOLA *+      CLEAR     68  59  73 CALM      29.79S
FORT WAYNE     TSTM      70  68  93 SE8       29.81R

$$

INZ028-029-035-036-043>045-051>053-200300-
WEST CENTRAL INDIANA

CITY           SKY/WX    TMP DP  RH WIND       PRES   REMARKS
GREENCASTLE +  RAIN      73  66  78 S15G30    29.81S
LAFAYETTE      MOCLDY    69  63  81 SE8       29.80R
TERRE HAUTE    MOCLDY    79  74  84 S5        29.81R

$$

INZ030>032-037>040-046>048-054>057-064-065-200300-
CENTRAL INDIANA

CITY           SKY/WX    TMP DP  RH WIND       PRES   REMARKS
INDIANAPOLIS   TSTM      76  71  85 S12       29.81S
-EAGLE CREEK   PTCLDY    75  68  78 S3        29.81S
KOKOMO *+      CLOUDY    72  66  83 W12       29.84R
MT COMFORT *+  MOCLDY    75  70  83 CALM      29.82S
SHELBYVILLE    MOCLDY    77  69  76 S8        29.81S
ZIONSVILLE +   PTCLDY    71  67  86 CALM      29.83R

$$

INZ033-034-041-042-049-050-058-059-200300-
EAST CENTRAL INDIANA

CITY           SKY/WX    TMP DP  RH WIND       PRES   REMARKS
MUNCIE         CLOUDY    74  69  85 S5        29.82R

$$

INZ060-061-067>069-081>083-085>088-200300-
SOUTHWEST INDIANA

CITY           SKY/WX    TMP DP  RH WIND       PRES   REMARKS
EVANSVILLE     CLOUDY    81  74  79 SW7       29.83R

$$

INZ062-063-066-070>080-084-089>092-200300-
SOUTH CENTRAL AND SOUTHEAST INDIANA

CITY           SKY/WX    TMP DP  RH WIND       PRES   REMARKS
BLOOMINGTON    MOCLDY    76  72  87 CALM      29.83R
SEYMOUR +      MOCLDY    72  59  64 S3        29.82

$$




USA.gov is the U.S. government's official web portal to all federal, state and local government web resources and services.